Location: Arboucave
(43.6130°N, 0.4343°W)
Time: 06:12:41
(UTC+00:00)

Cosmos 1092 Rocket - Pass Details

Date: 17 November 2025
Orbit: 953 x 994 km, 82.9° (Epoch: 04 December)

Event Time Altitude Azimuth Distance (km) Brightness Sun altitude
Rises 19:29:40 0° 348° (NNW) 3,689 7.2 -31.6°
Reaches altitude 10° 19:32:14 10° 345° (NNW) 2,731 6.5 -32.0°
Maximum altitude 19:38:21 60° 268° (W) 1,097 4.4 -33.1°
Enters shadow 19:39:48 48° 218° (SW) 1,242 4.6 -33.4°
Exits shadow 19:46:59 - 186° (S) 3,659 7.0 -34.7°
